sat.trackr.live / text

‹ back to catalog

STARLINK-35689

NORAD 66494 · 2025-263K

PAYLOAD ACTIVE UNKNOWN

§ Identity

Operator
Country
US
Launch date
2025-11-15
Launch site
AFETR
Launch vehicle
Mass (kg)
RCS (m²)

Purposes: comms

External: N2YO · Heavens-Above · Gunter

§ Orbital elements

Epoch: 2026-09-20T11:16:56.413632Z

Period
94.27 min
Inclination
42.9982°
Eccentricity
0.0000285
Mean motion
15.27588599 rev/d
Perigee alt
482.8 km
Apogee alt
483.2 km
Semi-major
6,861.2 km
B*
2.3813e-4
RAAN
331.0655°
Arg perigee
252.7466°
Mean anomaly
107.3354°
Rev number
4,868

§ Raw data

STARLINK-356891 66494U 25263K   26263.47009738  .00006298  00000+0  23813-3 0  99982 66494  42.9982 331.0655 0000285 252.7466 107.3354 15.27588599 48683

JSON: /api/v1/satellites/66494 · /tle

For live sub-satellite position, see the globe view (requires WebGL).

§ Visibility from observer

Set your observer location to see the next 7 days of passes ≥ 10°. The values pass through the URL so the page stays shareable.

No JS? Fill the form by hand. The geolocation button needs JavaScript.